| time (UTC) | temp F | wind direction | speed knots | gust knots | rain 1hr in | rain 24hr in | rain mn in | humidity % | barometer mb |
| 20260906155259 | 93 | 78 | 1.7 | 3.5 | 0.00 | 0.00 | 0.00 | 53 | |
| 20260906154755 | 92 | 80 | 0.0 | 2.6 | 0.00 | 0.00 | 0.00 | 53 | |
| 20260906154250 | 92 | 27 | 0.9 | 3.5 | 0.00 | 0.00 | 0.00 | 53 | |
| 20260906153748 | 91 | 282 | 1.7 | 3.5 | 0.00 | 0.00 | 0.00 | 56 | |
| 20260906153243 | 91 | 30 | 2.6 | 3.5 | 0.00 | 0.00 | 0.00 | 55 | |
| 20260906152738 | 90 | 203 | 0.0 | 1.7 | 0.00 | 0.00 | 0.00 | 58 | |
| 20260906152233 | 90 | 171 | 1.7 | 2.6 | 0.00 | 0.00 | 0.00 | 58 | |
| 20260906151732 | 90 | 5 | 0.9 | 2.6 | 0.00 | 0.00 | 0.00 | 58 | |
| 20260906151228 | 89 | 288 | 0.0 | 2.6 | 0.00 | 0.00 | 0.00 | 61 | |
| 20260906150723 | 88 | 11 | 0.0 | 5.2 | 0.00 | 0.00 | 0.00 | 61 | |
| 20260906150219 | 87 | 212 | 2.6 | 4.3 | 0.00 | 0.00 | 0.00 | 62 | |
| 20260906145718 | 87 | 185 | 1.7 | 4.3 | 0.00 | 0.00 | 0.00 | 63 | |
| 20260906145217 | 86 | 115 | 1.7 | 4.3 | 0.00 | 0.00 | 0.00 | 64 | |
| 20260906144712 | 86 | 24 | 2.6 | 3.5 | 0.00 | 0.00 | 0.00 | 64 | |
| 20260906144207 | 85 | 108 | 0.9 | 3.5 | 0.00 | 0.00 | 0.00 | 66 | |
| 20260906143706 | 85 | 295 | 0.0 | 2.6 | 0.00 | 0.00 | 0.00 | 65 | |
| 20260906143204 | 85 | 338 | 0.9 | 4.3 | 0.00 | 0.00 | 0.00 | 66 | |
| 20260906142703 | 84 | 170 | 1.7 | 2.6 | 0.00 | 0.00 | 0.00 | 67 | |
| 20260906142159 | 83 | 65 | 1.7 | 2.6 | 0.00 | 0.00 | 0.00 | 69 | |
| 20260906141657 | 82 | 104 | 0.0 | 2.6 | 0.00 | 0.00 | 0.00 | 70 | |
| 20260906141152 | 82 | 332 | 0.9 | 2.6 | 0.00 | 0.00 | 0.00 | 71 | |
| 20260906140651 | 81 | 63 | 0.9 | 1.7 | 0.00 | 0.00 | 0.00 | 72 | |
| 20260906140146 | 81 | 350 | 0.0 | 3.5 | 0.00 | 0.00 | 0.00 | 73 | |
| 20260906135643 | 81 | 24 | 2.6 | 3.5 | 0.00 | 0.00 | 0.00 | 74 | |
| 20260906135139 | 80 | 88 | 0.9 | 1.7 | 0.00 | 0.00 | 0.00 | 75 | |
| 20260906134635 | 79 | 22 | 3.5 | 4.3 | 0.00 | 0.00 | 0.00 | 76 | |
| 20260906134130 | 79 | 81 | 1.7 | 3.5 | 0.00 | 0.00 | 0.00 | 76 | |
| 20260906133626 | 78 | 65 | 1.7 | 5.2 | 0.00 | 0.00 | 0.00 | 77 | |
| 20260906133120 | 78 | 49 | 0.0 | 3.5 | 0.00 | 0.00 | 0.00 | 77 | |
| 20260906132615 | 78 | 6 | 1.7 | 4.3 | 0.00 | 0.00 | 0.00 | 78 | |
| 20260906132111 | 77 | 10 | 0.9 | 3.5 | 0.00 | 0.00 | 0.00 | 78 | |
| 20260906131607 | 77 | 83 | 0.9 | 2.6 | 0.00 | 0.00 | 0.00 | 78 | |
| 20260906131101 | 76 | 33 | 1.7 | 2.6 | 0.00 | 0.00 | 0.00 | 80 | |
| 20260906130555 | 75 | 105 | 0.0 | 2.6 | 0.00 | 0.00 | 0.00 | 81 | |
| 20260906130051 | 74 | 82 | 0.9 | 1.7 | 0.00 | 0.00 | 0.00 | 82 | |
| 20260906125548 | 74 | 49 | 0.0 | 1.7 | 0.00 | 0.00 | 0.00 | 83 | |
| 20260906125048 | 74 | 56 | 1.7 | 1.7 | 0.00 | 0.00 | 0.00 | 83 | |
| 20260906124543 | 73 | 67 | 0.9 | 1.7 | 0.00 | 0.00 | 0.00 | 84 | |
| 20260906124038 | 73 | 152 | 0.0 | 0.9 | 0.00 | 0.00 | 0.00 | 83 | |
| 20260906123538 | 73 | 43 | 1.7 | 1.7 | 0.00 | 0.00 | 0.00 | 84 | |
| 20260906123033 | 74 | 137 | 0.9 | 0.9 | 0.00 | 0.00 | 0.00 | 83 | |
| 20260906122532 | 74 | 48 | 1.7 | 1.7 | 0.00 | 0.00 | 0.00 | 84 | |
| 20260906122029 | 74 | 60 | 0.9 | 1.7 | 0.00 | 0.00 | 0.00 | 84 | |
| 20260906121525 | 74 | 74 | 0.9 | 1.7 | 0.00 | 0.00 | 0.00 | 83 | |
| 20260906121021 | 74 | 123 | 0.9 | 1.7 | 0.00 | 0.00 | 0.00 | 83 | |
| 20260906120516 | 74 | 63 | 0.0 | 1.7 | 0.00 | 0.00 | 0.00 | 83 | |
| 20260906120014 | 74 | 89 | 0.0 | 1.7 | 0.00 | 0.00 | 0.00 | 83 | |
| 20260906115514 | 74 | 72 | 0.0 | 1.7 | 0.00 | 0.00 | 0.00 | 84 | |
| 20260906115014 | 73 | 31 | 0.0 | 1.7 | 0.00 | 0.00 | 0.00 | 85 | |
| 20260906114508 | 73 | 103 | 0.9 | 1.7 | 0.00 | 0.00 | 0.00 | 86 | |
| 20260906114004 | 73 | 62 | 0.0 | 0.0 | 0.00 | 0.00 | 0.00 | 85 | |
| 20260906113503 | 73 | 74 | 0.0 | 1.7 | 0.00 | 0.00 | 0.00 | 85 | |
| 20260906112958 | 73 | 113 | 0.9 | 0.9 | 0.00 | 0.00 | 0.00 | 85 | |
| 20260906112453 | 73 | 112 | 0.0 | 0.9 | 0.00 | 0.00 | 0.00 | 84 | |
| 20260906111949 | 73 | 58 | 0.0 | 1.7 | 0.00 | 0.00 | 0.00 | 84 | |
| 20260906111448 | 73 | 92 | 0.9 | 1.7 | 0.00 | 0.00 | 0.00 | 83 | |
| 20260906110943 | 74 | 125 | 0.9 | 1.7 | 0.00 | 0.00 | 0.00 | 82 | |
| 20260906110439 | 75 | 89 | 0.0 | 0.9 | 0.00 | 0.00 | 0.00 | 81 | |
| 20260906105937 | 75 | 91 | 0.9 | 1.7 | 0.00 | 0.00 | 0.00 | 80 | |
| 20260906105433 | 75 | 87 | 0.0 | 1.7 | 0.00 | 0.00 | 0.00 | 80 | |
| 20260906104930 | 75 | 96 | 0.9 | 1.7 | 0.00 | 0.00 | 0.00 | 82 | |
| 20260906104428 | 73 | 53 | 0.0 | 0.9 | 0.00 | 0.00 | 0.00 | 84 | |
| 20260906103927 | 73 | 25 | 0.0 | 0.9 | 0.00 | 0.00 | 0.00 | 84 | |
| 20260906103426 | 73 | 88 | 0.0 | 0.9 | 0.00 | 0.00 | 0.00 | 83 | |
| 20260906102921 | 73 | 71 | 0.0 | 0.0 | 0.00 | 0.00 | 0.00 | 83 | |
| 20260906102421 | 73 | 149 | 0.0 | 0.9 | 0.00 | 0.00 | 0.00 | 83 | |
| 20260906101915 | 72 | 63 | 0.0 | 0.9 | 0.00 | 0.00 | 0.00 | 83 | |
| 20260906101411 | 72 | 217 | 0.0 | 0.0 | 0.00 | 0.00 | 0.00 | 83 | |
| 20260906100906 | 72 | 210 | 0.9 | 0.9 | 0.00 | 0.00 | 0.00 | 83 | |
| 20260906100406 | 72 | 326 | 0.0 | 0.0 | 0.00 | 0.00 | 0.00 | 83 | |
| 20260906095901 | 72 | 184 | 0.0 | 0.0 | 0.00 | 0.00 | 0.00 | 82 | |
| 20260906095356 | 72 | 230 | 0.0 | 0.9 | 0.00 | 0.00 | 0.00 | 82 | |
| 20260906094855 | 73 | 219 | 0.0 | 0.9 | 0.00 | 0.00 | 0.00 | 81 | |
| 20260906094350 | 73 | 123 | 0.9 | 1.7 | 0.00 | 0.00 | 0.00 | 80 | |
| 20260906093847 | 73 | 127 | 0.9 | 1.7 | 0.00 | 0.00 | 0.00 | 79 | |
| 20260906093342 | 74 | 69 | 1.7 | 1.7 | 0.00 | 0.00 | 0.00 | 79 | |
| 20260906092837 | 74 | 64 | 1.7 | 1.7 | 0.00 | 0.00 | 0.00 | 78 | |
| 20260906092337 | 75 | 97 | 0.9 | 1.7 | 0.00 | 0.00 | 0.00 | 77 | |
| 20260906091833 | 75 | 59 | 1.7 | 1.7 | 0.00 | 0.00 | 0.00 | 76 | |
| 20260906091329 | 75 | 62 | 1.7 | 1.7 | 0.00 | 0.00 | 0.00 | 76 | |
| 20260906090826 | 75 | 67 | 0.9 | 0.9 | 0.00 | 0.00 | 0.00 | 77 | |
| 20260906090324 | 75 | 114 | 0.0 | 1.7 | 0.00 | 0.00 | 0.00 | 76 | |
| 20260906085818 | 75 | 99 | 0.0 | 0.9 | 0.00 | 0.00 | 0.00 | 77 | |
| 20260906085317 | 75 | 121 | 0.0 | 0.0 | 0.00 | 0.00 | 0.00 | 77 | |
| 20260906084812 | 75 | 144 | 0.0 | 0.9 | 0.00 | 0.00 | 0.00 | 76 | |
| 20260906084312 | 75 | 49 | 0.0 | 0.9 | 0.00 | 0.00 | 0.00 | 76 | |
| 20260906083807 | 75 | 141 | 0.0 | 0.9 | 0.00 | 0.00 | 0.00 | 75 | |
| 20260906083302 | 75 | 212 | 0.0 | 0.9 | 0.00 | 0.00 | 0.00 | 76 | |
| 20260906082757 | 74 | 230 | 0.0 | 0.9 | 0.00 | 0.00 | 0.00 | 77 | |
| 20260906082252 | 74 | 217 | 0.0 | 0.9 | 0.00 | 0.00 | 0.00 | 77 | |
| 20260906081748 | 74 | 239 | 0.9 | 1.7 | 0.00 | 0.00 | 0.00 | 78 | |
| 20260906081243 | 74 | 224 | 0.0 | 0.9 | 0.00 | 0.00 | 0.00 | 78 | |
| 20260906080739 | 74 | 333 | 0.0 | 0.9 | 0.00 | 0.00 | 0.00 | 78 | |
| 20260906080236 | 74 | 246 | 0.0 | 0.9 | 0.00 | 0.00 | 0.00 | 77 | |
| 20260906075729 | 74 | 334 | 0.0 | 0.9 | 0.00 | 0.00 | 0.00 | 77 | |
| 20260906075229 | 75 | 6 | 0.0 | 0.9 | 0.00 | 0.00 | 0.00 | 77 | |
| 20260906074725 | 75 | 233 | 0.0 | 0.9 | 0.00 | 0.00 | 0.00 | 77 | |
| 20260906074219 | 75 | 212 | 0.0 | 0.9 | 0.00 | 0.00 | 0.00 | 77 | |
| 20260906073719 | 75 | 254 | 0.0 | 1.7 | 0.00 | 0.00 | 0.00 | 77 | |
| 20260906073214 | 75 | 259 | 0.0 | 1.7 | 0.00 | 0.00 | 0.00 | 77 | |
| 20260906072709 | 75 | 308 | 0.0 | 0.9 | 0.00 | 0.00 | 0.00 | 76 | |
| 20260906072205 | 76 | 142 | 0.0 | 0.9 | 0.00 | 0.00 | 0.00 | 75 | |
| 20260906071701 | 75 | 135 | 0.0 | 1.7 | 0.00 | 0.00 | 0.00 | 76 | |
| 20260906071200 | 75 | 60 | 0.0 | 0.9 | 0.00 | 0.00 | 0.00 | 76 | |
| 20260906070657 | 76 | 246 | 0.0 | 1.7 | 0.00 | 0.00 | 0.00 | 75 | |
| 20260906070153 | 76 | 183 | 0.0 | 1.7 | 0.00 | 0.00 | 0.00 | 74 | |
| 20260906065652 | 77 | 238 | 0.0 | 0.9 | 0.00 | 0.00 | 0.00 | 73 | |
| 20260906065148 | 77 | 95 | 0.9 | 1.7 | 0.00 | 0.00 | 0.00 | 71 | |
| 20260906064643 | 77 | 120 | 1.7 | 1.7 | 0.00 | 0.00 | 0.00 | 71 | |
| 20260906064139 | 77 | 50 | 0.9 | 1.7 | 0.00 | 0.00 | 0.00 | 72 | |
| 20260906063639 | 76 | 113 | 0.0 | 0.9 | 0.00 | 0.00 | 0.00 | 73 | |
| 20260906063134 | 76 | 240 | 0.0 | 0.9 | 0.00 | 0.00 | 0.00 | 73 | |
| 20260906062630 | 76 | 255 | 0.0 | 0.9 | 0.00 | 0.00 | 0.00 | 74 | |
| 20260906062129 | 76 | 250 | 0.0 | 1.7 | 0.00 | 0.00 | 0.00 | 75 | |
| 20260906061625 | 76 | 227 | 0.9 | 1.7 | 0.00 | 0.00 | 0.00 | 75 | |
| 20260906061125 | 76 | 196 | 0.0 | 0.9 | 0.00 | 0.00 | 0.00 | 75 | |
| 20260906060621 | 76 | 213 | 0.9 | 1.7 | 0.00 | 0.00 | 0.00 | 75 | |
| 20260906060119 | 77 | 233 | 0.9 | 1.7 | 0.00 | 0.00 | 0.00 | 73 | |
| 20260906055614 | 77 | 205 | 0.0 | 0.9 | 0.00 | 0.00 | 0.00 | 73 | |
| 20260906055109 | 77 | 286 | 0.0 | 0.9 | 0.00 | 0.00 | 0.00 | 73 | |
| 20260906054610 | 77 | 189 | 0.9 | 1.7 | 0.00 | 0.00 | 0.00 | 73 | |
| 20260906054105 | 77 | 281 | 0.0 | 0.9 | 0.00 | 0.00 | 0.00 | 74 | |
| 20260906053601 | 76 | 257 | 0.0 | 0.9 | 0.00 | 0.00 | 0.00 | 75 | |
| 20260906053057 | 76 | 248 | 0.0 | 0.9 | 0.00 | 0.00 | 0.00 | 76 | |
| 20260906052552 | 76 | 227 | 0.9 | 0.9 | 0.00 | 0.00 | 0.00 | 76 | |
| 20260906052049 | 76 | 220 | 0.0 | 1.7 | 0.00 | 0.00 | 0.00 | 77 | |
| 20260906051544 | 76 | 224 | 0.0 | 0.9 | 0.00 | 0.00 | 0.00 | 77 | |
| 20260906051040 | 76 | 227 | 0.0 | 0.9 | 0.00 | 0.00 | 0.00 | 76 | |
| 20260906050535 | 76 | 225 | 0.9 | 1.7 | 0.00 | 0.00 | 0.00 | 76 | |
| 20260906050030 | 76 | 306 | 0.0 | 1.7 | 0.00 | 0.00 | 0.00 | 76 | |
| 20260906045528 | 77 | 247 | 0.9 | 1.7 | 0.00 | 0.00 | 0.00 | 75 | |
| 20260906045024 | 77 | 217 | 0.0 | 1.7 | 0.00 | 0.00 | 0.00 | 74 | |
| 20260906044519 | 77 | 226 | 0.9 | 1.7 | 0.00 | 0.00 | 0.00 | 74 | |
| 20260906044015 | 77 | 264 | 0.9 | 1.7 | 0.00 | 0.00 | 0.00 | 73 | |
| 20260906043510 | 77 | 154 | 0.0 | 0.9 | 0.00 | 0.00 | 0.00 | 72 | |
| 20260906043007 | 78 | 137 | 0.9 | 1.7 | 0.00 | 0.00 | 0.00 | 71 | |
| 20260906042505 | 78 | 101 | 0.9 | 1.7 | 0.00 | 0.00 | 0.00 | 71 | |
| 20260906042005 | 78 | 101 | 0.0 | 2.6 | 0.00 | 0.00 | 0.00 | 72 | |
| 20260906041502 | 77 | 229 | 0.0 | 0.0 | 0.00 | 0.00 | 0.00 | 74 | |
| 20260906041001 | 77 | 195 | 0.0 | 0.9 | 0.00 | 0.00 | 0.00 | 74 | |
| 20260906040456 | 77 | 275 | 0.9 | 1.7 | 0.00 | 0.00 | 0.00 | 73 | |
| 20260906035951 | 77 | 235 | 0.0 | 1.7 | 0.00 | 0.00 | 0.00 | 74 | |
| 20260906035447 | 77 | 214 | 0.0 | 1.7 | 0.00 | 0.00 | 0.00 | 74 | |
| 20260906034943 | 77 | 226 | 0.0 | 0.9 | 0.00 | 0.00 | 0.00 | 73 | |
| 20260906034442 | 78 | 242 | 0.0 | 0.9 | 0.00 | 0.00 | 0.00 | 72 | |
| 20260906033938 | 78 | 252 | 0.0 | 1.7 | 0.00 | 0.00 | 0.00 | 71 | |
| 20260906033438 | 78 | 285 | 0.9 | 1.7 | 0.00 | 0.00 | 0.00 | 72 | |
| 20260906032934 | 77 | 254 | 0.0 | 1.7 | 0.00 | 0.00 | 0.00 | 74 | |
| 20260906032431 | 77 | 208 | 0.0 | 0.9 | 0.00 | 0.00 | 0.00 | 75 | |
| 20260906031930 | 77 | 216 | 0.9 | 0.9 | 0.00 | 0.00 | 0.00 | 77 | |
| 20260906031426 | 78 | 235 | 0.0 | 0.9 | 0.00 | 0.00 | 0.00 | 75 | |
| 20260906030921 | 78 | 217 | 0.0 | 1.7 | 0.00 | 0.00 | 0.00 | 74 | |
| 20260906030415 | 78 | 214 | 0.0 | 0.0 | 0.00 | 0.00 | 0.00 | 73 | |
| 20260906025910 | 78 | 217 | 0.0 | 0.9 | 0.00 | 0.00 | 0.00 | 74 | |
| 20260906025404 | 78 | 232 | 0.0 | 1.7 | 0.00 | 0.00 | 0.00 | 73 | |
| 20260906024903 | 78 | 230 | 0.0 | 0.9 | 0.00 | 0.00 | 0.00 | 72 | |
| 20260906024402 | 78 | 322 | 0.0 | 0.0 | 0.00 | 0.00 | 0.00 | 72 | |
| 20260906023858 | 79 | 282 | 0.0 | 0.0 | 0.00 | 0.00 | 0.00 | 72 | |
| 20260906023355 | 79 | 255 | 0.0 | 0.9 | 0.00 | 0.00 | 0.00 | 72 | |
| 20260906022854 | 79 | 217 | 0.0 | 0.9 | 0.00 | 0.00 | 0.00 | 71 | |
| 20260906022349 | 79 | 269 | 0.0 | 0.9 | 0.00 | 0.00 | 0.00 | 71 | |
| 20260906021845 | 79 | 221 | 0.0 | 1.7 | 0.00 | 0.00 | 0.00 | 70 | |
| 20260906021344 | 79 | 216 | 0.0 | 1.7 | 0.00 | 0.00 | 0.00 | 69 | |
| 20260906020839 | 80 | 236 | 0.9 | 1.7 | 0.00 | 0.00 | 0.00 | 69 | |
| 20260906020338 | 79 | 239 | 2.6 | 2.6 | 0.00 | 0.00 | 0.00 | 70 | |
| 20260906015833 | 79 | 239 | 1.7 | 1.7 | 0.00 | 0.00 | 0.00 | 70 | |
| 20260906015332 | 80 | 242 | 0.9 | 1.7 | 0.00 | 0.00 | 0.00 | 68 | |
| 20260906014832 | 80 | 239 | 0.0 | 1.7 | 0.00 | 0.00 | 0.00 | 67 | |
| 20260906014327 | 81 | 252 | 0.9 | 0.9 | 0.00 | 0.00 | 0.00 | 66 | |
| 20260906013824 | 81 | 242 | 0.0 | 0.9 | 0.00 | 0.00 | 0.00 | 65 | |
| 20260906013319 | 81 | 279 | 0.9 | 0.9 | 0.00 | 0.00 | 0.00 | 65 | |
| 20260906012815 | 81 | 269 | 0.0 | 0.0 | 0.00 | 0.00 | 0.00 | 65 | |
| 20260906012314 | 81 | 260 | 0.0 | 0.9 | 0.00 | 0.00 | 0.00 | 65 | |
| 20260906011809 | 82 | 269 | 0.9 | 1.7 | 0.00 | 0.00 | 0.00 | 64 | |
| 20260906011309 | 82 | 309 | 0.0 | 0.0 | 0.00 | 0.00 | 0.00 | 63 | |
| 20260906010805 | 82 | 309 | 0.0 | 0.0 | 0.00 | 0.00 | 0.00 | 63 | |
| 20260906010301 | 83 | 297 | 0.0 | 0.0 | 0.00 | 0.00 | 0.00 | 62 | |
| 20260906005756 | 83 | 255 | 0.0 | 0.0 | 0.00 | 0.00 | 0.00 | 61 | |
| 20260906005255 | 83 | 255 | 0.0 | 0.0 | 0.00 | 0.00 | 0.00 | 61 | |
| 20260906004754 | 84 | 255 | 0.0 | 0.0 | 0.00 | 0.00 | 0.00 | 60 | |
| 20260906004249 | 84 | 247 | 0.9 | 0.9 | 0.00 | 0.00 | 0.00 | 60 | |
| 20260906003749 | 85 | 258 | 1.7 | 1.7 | 0.00 | 0.00 | 0.00 | 58 | |
| 20260906003245 | 86 | 217 | 0.0 | 0.0 | 0.00 | 0.00 | 0.00 | 56 | |
| 20260906002741 | 86 | 297 | 0.0 | 0.0 | 0.00 | 0.00 | 0.00 | 56 | |
| 20260906002240 | 87 | 322 | 0.0 | 0.9 | 0.00 | 0.00 | 0.00 | 55 | |
| 20260906001735 | 87 | 25 | 0.0 | 0.0 | 0.00 | 0.00 | 0.00 | 54 | |
| 20260906001231 | 88 | 350 | 0.9 | 0.9 | 0.00 | 0.00 | 0.00 | 53 | |
| 20260906000726 | 88 | 352 | 0.0 | 0.9 | 0.00 | 0.00 | 0.00 | 53 | |
| 20260906000226 | 89 | 252 | 0.0 | 0.9 | 0.00 | 0.00 | 0.00 | 51 | |
| 20260905235721 | 90 | 297 | 0.0 | 0.0 | 0.00 | 0.00 | 0.00 | 49 | |
| 20260905235215 | 91 | 297 | 0.0 | 0.0 | 0.00 | 0.00 | 0.00 | 49 | |
| 20260905234711 | 91 | 235 | 0.0 | 0.9 | 0.00 | 0.00 | 0.00 | 47 | |
| 20260905234206 | 92 | 217 | 0.0 | 0.9 | 0.00 | 0.00 | 0.00 | 45 | |
| 20260905233701 | 93 | 224 | 0.0 | 0.9 | 0.00 | 0.00 | 0.00 | 45 | |
| 20260905233201 | 93 | 162 | 0.0 | 1.7 | 0.00 | 0.00 | 0.00 | 44 | |
| 20260905232656 | 94 | 202 | 0.9 | 1.7 | 0.00 | 0.00 | 0.00 | 44 | |
| 20260905232152 | 94 | 192 | 0.9 | 1.7 | 0.00 | 0.00 | 0.00 | 43 | |
| 20260905231647 | 94 | 240 | 0.0 | 1.7 | 0.00 | 0.00 | 0.00 | 43 | |
| 20260905231143 | 92 | 195 | 0.0 | 1.7 | 0.00 | 0.00 | 0.00 | 45 | |
| 20260905230639 | 92 | 212 | 0.0 | 0.9 | 0.00 | 0.00 | 0.00 | 46 | |
| 20260905230137 | 92 | 260 | 0.9 | 1.7 | 0.00 | 0.00 | 0.00 | 46 | |
| 20260905225636 | 92 | 217 | 0.0 | 1.7 | 0.00 | 0.00 | 0.00 | 45 | |
| 20260905225136 | 93 | 176 | 1.7 | 2.6 | 0.00 | 0.00 | 0.00 | 44 | |
| 20260905224636 | 93 | 180 | 1.7 | 3.5 | 0.00 | 0.00 | 0.00 | 43 | |
| 20260905224136 | 95 | 200 | 4.3 | 4.3 | 0.00 | 0.00 | 0.00 | 42 | |
| 20260905223633 | 93 | 225 | 2.6 | 3.5 | 0.00 | 0.00 | 0.00 | 43 | |
| 20260905223129 | 93 | 192 | 2.6 | 4.3 | 0.00 | 0.00 | 0.00 | 44 | |
| 20260905222625 | 93 | 228 | 3.5 | 5.2 | 0.00 | 0.00 | 0.00 | 43 | |
| 20260905222119 | 95 | 180 | 3.5 | 5.2 | 0.00 | 0.00 | 0.00 | 40 | |
| 20260905221615 | 96 | 207 | 1.7 | 2.6 | 0.00 | 0.00 | 0.00 | 39 | |
| 20260905221112 | 95 | 209 | 2.6 | 8.7 | 0.00 | 0.00 | 0.00 | 40 | |
| 20260905220607 | 95 | 34 | 0.0 | 6.1 | 0.00 | 0.00 | 0.00 | 39 | |
| 20260905220103 | 96 | 186 | 1.7 | 4.3 | 0.00 | 0.00 | 0.00 | 38 | |
| 20260905215602 | 98 | 165 | 2.6 | 2.6 | 0.00 | 0.00 | 0.00 | 37 | |
| 20260905215058 | 96 | 354 | 1.7 | 2.6 | 0.00 | 0.00 | 0.00 | 38 | |
| 20260905214554 | 97 | 342 | 0.9 | 2.6 | 0.00 | 0.00 | 0.00 | 38 | |
| 20260905214054 | 97 | 342 | 1.7 | 1.7 | 0.00 | 0.00 | 0.00 | 38 | |
| 20260905213550 | 98 | 128 | 0.0 | 1.7 | 0.00 | 0.00 | 0.00 | 37 | |
| 20260905213045 | 98 | 125 | 1.7 | 2.6 | 0.00 | 0.00 | 0.00 | 37 | |
| 20260905212545 | 99 | 100 | 1.7 | 1.7 | 0.00 | 0.00 | 0.00 | 35 | |
| 20260905212044 | 101 | 175 | 1.7 | 2.6 | 0.00 | 0.00 | 0.00 | 34 | |
| 20260905211540 | 102 | 1 | 1.7 | 3.5 | 0.00 | 0.00 | 0.00 | 33 | |
| 20260905211036 | 101 | 53 | 2.6 | 4.3 | 0.00 | 0.00 | 0.00 | 34 | |
| 20260905210531 | 100 | 269 | 0.0 | 1.7 | 0.00 | 0.00 | 0.00 | 32 | |
| 20260905210031 | 102 | 212 | 1.7 | 1.7 | 0.00 | 0.00 | 0.00 | 32 | |
| 20260905205531 | 104 | 292 | 0.9 | 3.5 | 0.00 | 0.00 | 0.00 | 30 | |
| 20260905205030 | 103 | 352 | 0.9 | 1.7 | 0.00 | 0.00 | 0.00 | 31 | |
| 20260905204525 | 102 | 187 | 1.7 | 4.3 | 0.00 | 0.00 | 0.00 | 32 | |
| 20260905204020 | 100 | 134 | 0.9 | 1.7 | 0.00 | 0.00 | 0.00 | 35 | |
| 20260905203515 | 100 | 114 | 0.9 | 7.0 | 0.00 | 0.00 | 0.00 | 34 | |
| 20260905203010 | 99 | 272 | 0.9 | 3.5 | 0.00 | 0.00 | 0.00 | 35 | |
| 20260905202511 | 99 | 43 | 1.7 | 2.6 | 0.00 | 0.00 | 0.00 | 35 | |
| 20260905202006 | 99 | 14 | 0.9 | 7.0 | 0.00 | 0.00 | 0.00 | 36 | |
| 20260905201502 | 100 | 207 | 1.7 | 2.6 | 0.00 | 0.00 | 0.00 | 34 | |
| 20260905201001 | 102 | 82 | 2.6 | 2.6 | 0.00 | 0.00 | 0.00 | 33 | |
| 20260905200457 | 101 | 150 | 2.6 | 4.3 | 0.00 | 0.00 | 0.00 | 33 | |
| 20260905195955 | 98 | 246 | 1.7 | 4.3 | 0.00 | 0.00 | 0.00 | 36 | |
| 20260905195450 | 98 | 261 | 1.7 | 2.6 | 0.00 | 0.00 | 0.00 | 35 | |
| 20260905194946 | 99 | 247 | 1.7 | 1.7 | 0.00 | 0.00 | 0.00 | 36 | |
| 20260905194445 | 98 | 300 | 0.9 | 1.7 | 0.00 | 0.00 | 0.00 | 35 | |
| 20260905193940 | 98 | 240 | 0.9 | 2.6 | 0.00 | 0.00 | 0.00 | 35 | |
| 20260905193440 | 99 | 69 | 2.6 | 5.2 | 0.00 | 0.00 | 0.00 | 34 | |
| 20260905192935 | 101 | 271 | 2.6 | 5.2 | 0.00 | 0.00 | 0.00 | 33 | |
| 20260905192431 | 102 | 263 | 1.7 | 3.5 | 0.00 | 0.00 | 0.00 | 32 | |
| 20260905191926 | 101 | 284 | 2.6 | 4.3 | 0.00 | 0.00 | 0.00 | 32 | |
| 20260905191425 | 102 | 249 | 2.6 | 6.1 | 0.00 | 0.00 | 0.00 | 30 | |
| 20260905190920 | 104 | 54 | 2.6 | 3.5 | 0.00 | 0.00 | 0.00 | 30 | |
| 20260905190417 | 103 | 115 | 1.7 | 4.3 | 0.00 | 0.00 | 0.00 | 31 | |
| 20260905185916 | 102 | 210 | 0.9 | 3.5 | 0.00 | 0.00 | 0.00 | 33 | |
| 20260905185412 | 103 | 140 | 7.0 | 7.0 | 0.00 | 0.00 | 0.00 | 31 | |
| 20260905184910 | 101 | 224 | 0.0 | 1.7 | 0.00 | 0.00 | 0.00 | 34 | |
| 20260905184411 | 101 | 308 | 0.0 | 4.3 | 0.00 | 0.00 | 0.00 | 33 | |
| 20260905183909 | 101 | 240 | 4.3 | 6.1 | 0.00 | 0.00 | 0.00 | 34 | |
| 20260905183404 | 101 | 213 | 2.6 | 5.2 | 0.00 | 0.00 | 0.00 | 34 | |
| 20260905182859 | 101 | 243 | 5.2 | 5.2 | 0.00 | 0.00 | 0.00 | 35 | |
| 20260905182353 | 99 | 123 | 0.9 | 3.5 | 0.00 | 0.00 | 0.00 | 36 | |
| 20260905181849 | 100 | 186 | 2.6 | 5.2 | 0.00 | 0.00 | 0.00 | 35 | |
| 20260905181348 | 100 | 330 | 1.7 | 3.5 | 0.00 | 0.00 | 0.00 | 35 | |
| 20260905180847 | 100 | 352 | 1.7 | 3.5 | 0.00 | 0.00 | 0.00 | 36 | |
| 20260905180342 | 100 | 111 | 1.7 | 4.3 | 0.00 | 0.00 | 0.00 | 36 | |
| 20260905175838 | 100 | 136 | 1.7 | 5.2 | 0.00 | 0.00 | 0.00 | 36 | |
| 20260905175337 | 100 | 218 | 1.7 | 3.5 | 0.00 | 0.00 | 0.00 | 38 | |
| 20260905174832 | 100 | 62 | 0.9 | 3.5 | 0.00 | 0.00 | 0.00 | 36 | |
| 20260905174329 | 100 | 225 | 0.0 | 3.5 | 0.00 | 0.00 | 0.00 | 35 | |
| 20260905173824 | 97 | 223 | 2.6 | 3.5 | 0.00 | 0.00 | 0.00 | 39 | |
| 20260905173320 | 97 | 300 | 0.9 | 1.7 | 0.00 | 0.00 | 0.00 | 39 | |
| 20260905172820 | 96 | 223 | 2.6 | 3.5 | 0.00 | 0.00 | 0.00 | 40 | |
| 20260905172318 | 96 | 282 | 1.7 | 2.6 | 0.00 | 0.00 | 0.00 | 40 | |
| 20260905171814 | 97 | 105 | 1.7 | 3.5 | 0.00 | 0.00 | 0.00 | 38 | |
| 20260905171311 | 97 | 345 | 1.7 | 4.3 | 0.00 | 0.00 | 0.00 | 39 | |
| 20260905170807 | 98 | 330 | 1.7 | 7.0 | 0.00 | 0.00 | 0.00 | 37 | |
| 20260905170302 | 97 | 4 | 0.0 | 5.2 | 0.00 | 0.00 | 0.00 | 39 | |
| 20260905165801 | 96 | 121 | 1.7 | 5.2 | 0.00 | 0.00 | 0.00 | 39 | |
| 20260905165257 | 98 | 26 | 4.3 | 7.8 | 0.00 | 0.00 | 0.00 | 38 | |
| 20260905164752 | 98 | 24 | 2.6 | 5.2 | 0.00 | 0.00 | 0.00 | 38 | |
| 20260905164252 | 99 | 260 | 3.5 | 3.5 | 0.00 | 0.00 | 0.00 | 38 | |
| 20260905163747 | 98 | 138 | 0.9 | 2.6 | 0.00 | 0.00 | 0.00 | 38 | |
| 20260905163244 | 97 | 200 | 4.3 | 5.2 | 0.00 | 0.00 | 0.00 | 39 | |
| 20260905162739 | 96 | 182 | 1.7 | 5.2 | 0.00 | 0.00 | 0.00 | 40 | |
| 20260905162239 | 96 | 207 | 4.3 | 4.3 | 0.00 | 0.00 | 0.00 | 41 | |
| 20260905161734 | 95 | 244 | 1.7 | 5.2 | 0.00 | 0.00 | 0.00 | 40 | |
| 20260905161232 | 96 | 309 | 2.6 | 4.3 | 0.00 | 0.00 | 0.00 | 39 | |
| 20260905160731 | 96 | 218 | 0.0 | 2.6 | 0.00 | 0.00 | 0.00 | 44 | |
| 20260905160231 | 96 | 49 | 1.7 | 2.6 | 0.00 | 0.00 | 0.00 | 44 | |
| 20260905155726 | 95 | 99 | 0.9 | 3.5 | 0.00 | 0.00 | 0.00 | 44 |